Cortez, CO

6:29 AM MDT on May 27, 2017 (GMT -0600)
Cortez Municipal

Weather History for KCEZ - April, 2013

Change the Weather History Date:

Tuesday, April 23, 2013

  Actual Average Record
Temperature  
Mean Temperature 40 °F 49 °F  
Max Temperature 55 °F 67 °F 85 °F (2012)
Min Temperature 25 °F 31 °F 23 °F (2002)
Degree Days  
Heating Degree Days 25 16  
Month to date heating degree days 456 437  
Since 1 July heating degree days 6054 5967  
Cooling Degree Days 0 0  
Month to date cooling degree days 0 0  
Year to date cooling degree days 0 0  
Moisture  
Dew Point 9 °F    
Average Humidity 33    
Maximum Humidity 59    
Minimum Humidity 6    
Precipitation  
Precipitation 0.00 in 0.04 in 0.15 in (2011)
Month to date precipitation 0.10 0.92  
Year to date precipitation 2.61 4.00  
Sea Level Pressure  
Sea Level Pressure 29.91 in    
Wind  
Wind Speed 11 mph (NNW)    
Max Wind Speed 25 mph    
Max Gust Speed 37 mph    
Visibility 10 miles    
Events      
T = Trace of Precipitation, MM = Missing Value Source: NWS Daily Summary

Daily Weather History Graph

Daily Weather History Graph

Search for Another Location

Airport or City:

Trip Planner

Search our weather history database for the weather conditions in past years. The results will help you decide how hot, cold, wet, or windy it might be!

Date:

Astronomy

Apr. 23, 2013 Rise Set
Actual Time 6:28 AM MDT 7:57 PM MDT
Civil Twilight 6:01 AM MDT 8:24 PM MDT
Nautical Twilight 5:28 AM MDT 8:57 PM MDT
Astronomical Twilight 4:53 AM MDT 9:32 PM MDT
Moon 5:57 PM MDT (4/23) 4:55 AM MDT (4/23)
Length of Visible Light 14h 23m
Length of Day
13h 28m
Waxing Gibbous, 94% of the Moon is Illuminated
Apr 23
Waxing Gibbous
Apr 25
Full
May 2
Last Quarter
May 9
New
May 17
First Quarter

Hourly Weather History & Observations

Time (MDT) Temp. Windchill Dew Point Humidity Pressure Visibility Wind Dir Wind Speed Gust Speed Precip Events Conditions
12:53 AM 48.9 °F - 17.1 °F 28% 29.72 in 10.0 mi NW 5.8 mph - N/A   Clear
1:53 AM 46.9 °F - 19.0 °F 33% 29.73 in 10.0 mi NW 9.2 mph - N/A   Clear
2:53 AM 46.0 °F 40.2 °F 21.0 °F 37% 29.75 in 10.0 mi NW 12.7 mph - N/A   Scattered Clouds
4:53 AM 41.0 °F 35.8 °F 25.0 °F 53% 29.81 in 10.0 mi NNE 8.1 mph - N/A   Partly Cloudy
5:53 AM 37.9 °F 35.5 °F 24.1 °F 57% 29.82 in 10.0 mi NNE 3.5 mph - N/A   Clear
6:53 AM 35.1 °F - 23.0 °F 61% 29.83 in 10.0 mi Calm Calm - N/A   Mostly Cloudy
7:53 AM 44.1 °F 37.1 °F 19.0 °F 37% 29.85 in 10.0 mi NW 15.0 mph 20.7 mph N/A   Partly Cloudy
8:53 AM 45.0 °F 37.1 °F 18.0 °F 34% 29.86 in 10.0 mi NNW 19.6 mph 25.3 mph N/A   Partly Cloudy
9:53 AM 46.0 °F 40.2 °F 19.0 °F 34% 29.88 in 10.0 mi NNW 12.7 mph 21.9 mph N/A   Clear
10:53 AM 48.0 °F - 17.1 °F 29% 29.90 in 10.0 mi NNW 9.2 mph 17.3 mph N/A   Scattered Clouds
11:53 AM 50.0 °F - 12.9 °F 23% 29.92 in 10.0 mi NNW 13.8 mph 25.3 mph N/A   Clear
12:53 PM 51.1 °F - 5.0 °F 15% 29.92 in 10.0 mi WNW 13.8 mph 33.4 mph N/A   Clear
1:53 PM 53.1 °F - 1.0 °F 12% 29.92 in 10.0 mi West 16.1 mph 29.9 mph N/A   Clear
2:53 PM 53.1 °F - 1.9 °F 12% 29.93 in 10.0 mi NNW 19.6 mph 27.6 mph N/A   Clear
3:53 PM 54.0 °F - 1.0 °F 12% 29.93 in 10.0 mi WNW 18.4 mph 27.6 mph N/A   Clear
4:53 PM 55.0 °F - -0.9 °F 10% 29.94 in 10.0 mi NW 12.7 mph 23.0 mph N/A   Clear
5:53 PM 54.0 °F - -2.9 °F 10% 29.97 in 10.0 mi NW 16.1 mph 20.7 mph N/A   Clear
6:53 PM 51.1 °F - -13.0 °F 7% 29.99 in 10.0 mi NNW 15.0 mph 23.0 mph N/A   Clear
7:53 PM 46.9 °F - -4.0 °F 12% 29.96 in 10.0 mi NNW 5.8 mph - N/A   Clear
8:53 PM 37.9 °F 34.4 °F -2.9 °F 18% 30.03 in 10.0 mi Variable 4.6 mph - N/A   Clear
9:53 PM 36.0 °F 32.1 °F -0.0 °F 22% 30.06 in 10.0 mi NE 4.6 mph - N/A   Clear
10:53 PM 33.1 °F 27.7 °F 1.0 °F 26% 30.08 in 10.0 mi NNE 5.8 mph - N/A   Clear
11:53 PM 25.0 °F 17.1 °F 3.0 °F 39% 30.09 in 10.0 mi NE 6.9 mph - N/A   Clear